Flag for Oman Weather past 2 weeks in Salalah, Oman

Now
86 °F

Pleasantly warm.


Feels Like: 83 °F
Forecast: 60 / 80 °F
Wind: 12 mph from North

Location: Salalah Airport

Current Time: Mar 1, 2015 at 5:25:26 PM

Latest Report: Mar 1, 2015 at 3:50 PM


Visibility: N/A

Pressure: 29.86 "Hg

Humidity: 11%

Dew point: 25 °F

Location of SalalahLocation

Historic Weather in Salalah — Graph

°F

Salalah temperature yesterday

Maximum temperature yesterday: 84 °F (at 1:50 PM)
Minimum temperature yesterday: 72 °F (at 3:50 AM)
Average temperature yesterday: 77 °F

Past Weeks' High & Low Weather Summary

 TemperatureHumidityPressure
High86 °F (Feb 23, 2:50 PM)83% (Feb 20, 6:50 AM)30.09 "Hg (Feb 20, 6:50 AM)
Low64 °F (Feb 18, 6:50 AM)8% (Feb 25, 12:50 PM)29.83 "Hg (Feb 19, 2:50 PM)
Average75 °F49%29.95 "Hg
* Reported Feb 14 3:50 PM — Mar 1 3:50 PM, Salalah, Weather by CustomWeather, © 2015

Note: Actual official high and low records may vary slightly from our data, if they occured in-between our weather recording intervals... More about our weather records

Advertising

Salalah weather history for previous 24 hours

 ConditionsComfort  
Time TempWeatherWind HumidityBarometerVisibility
3:50 PM
Sun, Mar 1
86 °FPleasantly warm.12 mph11%29.86 "HgN/A
2:50 PM84 °FPleasantly warm.13 mph11%29.86 "HgN/A
1:50 PM84 °FPleasantly warm.15 mph12%29.89 "HgN/A
12:50 PM82 °FPassing clouds.15 mph13%29.92 "HgN/A
11:50 AM82 °FSunny.17 mph14%29.95 "Hg10 mi
10:50 AM79 °FPleasantly warm.20 mph17%29.98 "HgN/A
9:50 AM79 °FPassing clouds.16 mph18%29.98 "HgN/A
8:50 AM75 °FMild.16 mph25%29.98 "HgN/A
7:50 AM72 °FSunny.16 mph31%29.98 "Hg10 mi
6:50 AM68 °FMild.15 mph33%29.95 "HgN/A
5:50 AM70 °FMild.13 mph31%29.92 "HgN/A
4:50 AM70 °FMild.16 mph31%29.89 "HgN/A
3:50 AM70 °FMild.6 mph31%29.89 "HgN/A
2:50 AM70 °FMild.7 mph31%29.89 "HgN/A
1:50 AM72 °FMild.8 mph29%29.92 "HgN/A
12:50 AM72 °FMild.7 mph27%29.92 "HgN/A
11:50 PM
Sat, Feb 28
73 °FMild.3 mph23%29.95 "HgN/A
10:50 PM73 °FMild.6 mph22%29.95 "HgN/A
9:50 PM77 °FPleasantly warm.5 mph19%29.95 "HgN/A
8:50 PM77 °FPleasantly warm.7 mph18%29.92 "HgN/A
7:50 PM79 °FPleasantly warm.3 mph17%29.92 "HgN/A
6:50 PM81 °FPleasantly warm.14 mph15%29.89 "HgN/A
5:50 PM82 °FPleasantly warm.17 mph12%29.86 "HgN/A
Weather by CustomWeather, © 2015

See weather overviewHow to use our weather pages